Temp
13 12 12 12 12 11 11 12 11 11 11 11 11 11 11 11 11 12 12 13 13 12
13 12 12 11 11 11 11 11 11 11 11 10 10 10 10 10 11 11 12 12 12 12
12 12 12 11 11 10 10 10 11 10 10 10 9 9 9 9 10 11 11 11 11 11
11 11 11 11 11 11 10 9 9 9 8 9 8 8 8 8 9 10 10 10 10 10
11 11 10 10 10 9 10 11 10 9 9 9 8 7 7 7 8 8 8 9 8 8
9 10 9 9 10 8 8 8 9 7 8 8 9 11 9 10 9 8 7 7 7 8
8 8 9 8 9 8 8 8 8 8 9 7 8 8 7 8 7 7 6 7 6 5
7 7 8 7 7 7 7 7 7 8 7 7 7 8 7 6 6 6 5 3 4 3
5 5 6 5 5 5 5 5 5 5 6 6 6 6 5 5 5 4 4 3 2 1
2 2 3 4 4 4 4 4 4 4 4 4 5 4 4 4 3 3 2 1 1 0
-0 1 1 2 1 1 2 2 3 3 3 3 3 1 0 2 2 1 1 0 -0 -0
-1 -1 -1 -1 -0 -0 0 0 1 1 1 1 1 -0 -1 0 0 -0 -1 -1 -1 -1
-2 -1 -1 -2 -1 -2 -1 -1 -1 -1 -0 0 -0 -1 -2 -0 -1 -3 -3 -3 -2 -2
-2 -2 -2 -2 -2 -2 -2 -2 -2 -2 -2 -1 -1 -1 -3 -3 -2 -3 -3 -3 -2 -2
Height
775 780 784 790 794 804 810 815 823 829 834 840 845 850 855 860 863 866 871 874 878 881
771 777 782 789 794 800 806 811 818 824 830 836 840 846 851 855 857 863 867 872 876 879
767 773 779 786 791 795 802 806 812 818 824 829 835 839 845 850 855 859 864 869 873 876
763 770 775 781 787 792 798 803 810 813 820 825 829 836 840 846 851 855 860 865 870 874
759 766 773 777 782 787 795 793 802 809 818 819 825 837 838 844 848 850 857 861 866 871
756 762 768 773 778 786 790 797 798 807 808 819 822 822 830 836 840 847 853 855 863 865
753 759 763 770 775 779 783 790 795 800 804 813 817 819 829 828 838 841 847 851 859 863
749 756 759 766 772 777 781 787 791 795 802 808 813 817 822 830 837 838 844 849 852 860
747 752 756 763 768 774 780 785 790 795 799 804 811 817 822 827 831 837 841 844 850 858
748 749 756 760 765 770 775 781 786 794 798 802 808 814 819 824 830 834 839 843 848 855
750 750 754 757 763 771 773 775 782 787 795 800 807 812 818 821 828 832 836 842 849 853
751 755 755 758 761 769 772 775 779 785 792 797 804 809 815 819 825 830 836 843 848 853
757 753 760 759 759 768 770 774 780 784 790 795 802 808 812 817 822 829 836 842 848 854
752 756 762 761 761 770 771 776 782 785 789 794 800 807 812 816 819 826 833 841 846 852
Wind_Speed
33 32 31 38 45 43 43 44 37 37 35 32 31 29 29 29 27 26 23 22 17 13
35 33 33 32 30 35 38 41 42 40 36 32 32 30 28 28 32 27 25 22 17 13
37 36 36 36 36 34 35 38 41 39 40 37 33 33 31 30 29 28 24 21 18 16
37 37 36 38 39 39 40 37 37 38 36 36 35 31 30 29 29 27 25 22 19 16
38 36 35 34 35 36 37 34 30 32 31 20 23 22 23 25 27 26 25 23 20 18
36 36 35 34 32 35 34 35 31 31 31 36 35 28 31 30 27 26 24 21 22 19
36 36 34 34 33 32 30 32 33 30 28 31 31 31 35 33 33 32 29 27 24 20
34 35 32 32 33 30 30 31 32 33 33 31 31 32 31 33 33 30 27 24 22 19
33 31 32 33 32 31 30 30 31 32 33 32 30 28 29 30 29 29 28 27 24 22
26 30 33 32 31 34 34 32 31 31 31 30 28 27 27 28 28 29 28 27 27 24
21 25 27 31 31 30 34 36 34 31 30 29 26 25 24 26 27 26 26 26 27 27
14 20 21 25 28 30 31 31 30 31 30 28 27 26 26 25 26 25 26 26 25 25
13 15 19 20 21 21 24 25 27 27 27 27 29 28 27 27 29 27 26 25 25 23
7 11 17 17 20 22 22 22 22 24 24 26 31 29 25 25 29 30 29 28 25 22
Wind_Direction
190 189 187 188 189 194 195 199 198 201 200 199 195 196 198 195 194 197 191 185 182 173
195 194 193 191 189 192 197 199 202 204 200 197 198 199 196 196 201 195 193 193 188 186
196 197 199 198 195 194 197 199 200 201 200 197 195 197 198 201 199 194 193 195 191 191
195 199 203 204 207 207 208 204 204 201 199 199 199 200 198 201 195 194 195 195 196 197
198 201 202 204 207 210 208 207 218 213 208 212 211 215 202 200 195 194 195 191 192 198
197 198 201 204 205 206 200 200 199 208 199 203 201 200 213 214 210 207 204 194 199 198
197 200 199 203 203 205 205 204 200 204 206 206 201 197 200 197 203 196 199 198 201 200
194 196 191 195 198 199 199 200 198 196 198 199 198 200 201 200 199 196 194 192 189 190
190 191 189 191 191 192 193 194 194 195 195 196 200 202 203 203 200 198 194 186 182 184
190 184 188 186 187 189 189 190 190 193 194 195 199 202 203 203 201 196 191 187 183 177
188 180 183 182 184 186 187 185 188 189 195 194 193 188 185 196 196 190 187 188 185 183
180 180 173 174 176 183 181 182 187 188 188 189 181 171 168 188 187 184 184 187 187 186
181 175 177 175 168 176 176 173 181 182 186 182 172 168 166 181 180 168 167 173 168 172
150 170 181 170 169 183 171 168 171 170 176 174 174 167 167 172 176 167 162 171 178 181